Location: Aula-Vintri
(58.3875°N, 22.4322°E)
Time: 11:00:56
(UTC+00:00)

Cosmos 1242 Rocket - Pass Details

Date: 13 October 2019
Orbit: 449 x 488 km, 81.2° (Epoch: 14 November)

Event Time Altitude Azimuth Distance (km) Brightness Sun altitude
Rises 17:14:15 0° 342° (NNW) 2,569 6.6 -14.2°
Reaches altitude 10° 17:16:22 10° 340° (NNW) 1,687 5.7 -14.5°
Maximum altitude 17:20:02 66° 259° (WSW) 539 3.0 -15.0°
Drops below altitude 10° 17:23:42 10° 176° (S) 1,679 5.1 -15.4°
Sets 17:25:48 0° 174° (S) 2,556 6.1 -15.7°
